period_start,C,m1,H,J0,J1,J2,J3,J4,J5,JA,JB,JC,JD,JJ,JK,JN,#
2015-01-08 00:03:23,0.23,2.10,0.00,20.98,25.68,28.48,4.91,26.69,1031.63,2036.00,2679.72,2746.65,2974.73,350.31,355.47,9.46,0000 0000 0000 0000 000000
2015-01-08 00:08:24,0.23,2.11,0.00,20.99,25.69,28.46,4.94,26.60,1031.45,2036.00,2677.48,2744.98,2972.89,350.47,355.63,9.49,0000 0000 0000 0000 000000
2015-01-08 00:13:25,0.22,2.12,0.00,20.98,25.70,28.46,4.85,26.65,1031.56,2036.00,2675.27,2743.38,2971.11,349.92,355.14,9.52,0000 0000 0000 0000 000000
2015-01-08 00:18:27,0.24,2.12,0.00,20.98,25.70,28.47,4.92,26.73,1031.55,2036.00,2673.01,2741.69,2969.27,349.68,354.90,9.55,0000 0000 0000 0000 000000
2015-01-08 00:23:28,0.23,2.13,0.00,20.98,25.70,28.49,4.92,26.80,1031.55,2036.00,2670.80,2740.04,2967.54,350.06,355.24,9.57,0000 0000 0000 0000 000000
2015-01-08 00:28:29,0.22,2.14,0.00,20.98,25.70,28.51,4.89,26.67,1031.54,2036.00,2668.64,2738.51,2965.80,349.42,354.74,9.60,0000 0000 0000 0000 000000
2015-01-08 00:33:30,0.23,2.14,0.00,20.99,25.70,28.52,4.86,26.73,1031.41,2036.00,2666.49,2736.84,2964.02,349.73,354.97,9.63,0000 0000 0000 0000 000000
2015-01-08 00:38:32,0.21,2.15,0.00,20.98,25.71,28.50,4.88,26.83,1031.29,2036.00,2664.30,2735.30,2962.22,349.87,354.97,9.66,0000 0000 0000 0000 000000
2015-01-08 00:43:33,0.24,2.16,0.00,20.96,25.72,28.46,4.81,26.67,1031.32,2036.00,2662.10,2733.63,2960.48,349.54,354.60,9.69,0000 0000 0000 0000 000000
2015-01-08 00:48:34,0.24,2.16,0.00,20.98,25.72,28.49,4.94,26.73,1031.31,2036.00,2659.90,2731.98,2958.68,350.23,355.23,9.72,0000 0000 0000 0000 000000
2015-01-08 00:53:36,0.21,2.17,0.00,21.01,25.72,28.53,4.86,26.73,1031.31,2035.99,2657.67,2730.42,2956.99,349.62,354.87,9.75,0000 0000 0000 0000 000000
2015-01-08 00:58:37,0.24,2.18,0.00,21.01,25.72,28.57,4.91,26.69,1031.35,2035.99,2655.43,2728.76,2955.20,350.50,355.46,9.78,0000 0000 0000 0000 000000
2015-01-08 01:03:38,0.21,2.18,0.00,21.00,25.72,28.56,4.89,26.68,1031.33,2035.99,2653.19,2727.19,2953.42,350.25,355.27,9.81,0000 0000 0000 0000 000000
2015-01-08 01:08:40,0.25,2.19,0.00,20.97,25.72,28.59,4.87,26.70,1031.30,2035.98,2651.01,2725.53,2951.68,349.89,354.98,9.84,0000 0000 0000 0000 000000
2015-01-08 01:13:41,0.23,2.20,0.00,21.00,25.72,28.54,4.89,26.79,1031.30,2035.99,2648.73,2723.85,2949.92,349.65,354.83,9.87,0000 0000 0000 0000 000000
2015-01-08 01:18:42,0.21,2.20,0.00,21.00,25.73,28.55,4.88,26.71,1031.32,2035.99,2646.46,2722.25,2948.21,349.88,355.05,9.90,0000 0000 0000 0000 000000
2015-01-08 01:23:43,0.26,2.21,0.00,20.96,25.73,28.53,4.87,26.67,1031.34,2035.99,2644.16,2720.57,2946.33,350.18,355.32,9.93,0000 0000 0000 0000 000000
2015-01-08 01:28:45,0.25,2.22,0.00,20.97,25.74,28.62,4.91,26.68,1031.34,2035.99,2641.80,2718.80,2944.49,349.74,354.81,9.95,0000 0000 0000 0000 000000
2015-01-08 01:33:46,0.23,2.23,0.00,21.00,25.74,28.56,4.81,26.62,1031.41,2035.97,2639.49,2717.08,2942.68,349.91,354.74,9.98,0000 0000 0000 0000 000000
2015-01-08 01:38:47,0.25,2.23,0.00,21.01,25.74,28.58,4.87,26.94,1031.45,2035.96,2637.06,2715.31,2940.85,349.89,355.11,10.01,0000 0000 0000 0000 000000
2015-01-08 01:43:48,0.25,2.24,0.00,21.04,25.75,28.57,4.90,26.80,1031.35,2035.97,2634.78,2713.60,2938.95,349.79,354.62,10.04,0000 0000 0000 0000 000000
2015-01-08 01:48:49,0.23,2.25,0.00,21.03,25.75,28.56,4.87,26.75,1031.55,2035.97,2632.59,2711.98,2937.11,349.81,355.03,10.07,0000 0000 0000 0000 000000
2015-01-08 01:53:51,0.24,2.25,0.00,21.01,25.75,28.57,4.89,26.93,1031.68,2035.96,2630.25,2710.24,2935.26,349.48,354.80,10.10,0000 0000 0000 0000 000000
2015-01-08 01:58:52,0.25,2.26,0.00,20.99,25.75,28.53,4.91,26.67,1031.72,2035.94,2627.88,2708.49,2933.33,350.24,355.53,10.13,0000 0000 0000 0000 000000
2015-01-08 02:03:53,0.26,2.27,0.00,21.01,25.75,28.61,4.93,26.76,1031.67,2035.94,2625.53,2706.79,2931.53,350.27,355.50,10.16,0000 0000 0000 0000 000000
2015-01-08 02:08:54,0.25,2.28,0.00,20.98,25.75,28.57,4.91,26.82,1031.67,2035.95,2623.20,2705.03,2929.61,349.85,355.07,10.19,0000 0000 0000 0000 000000
2015-01-08 02:13:56,0.25,2.28,0.00,21.04,25.75,28.56,4.90,26.63,1031.60,2035.96,2621.01,2703.31,2927.70,350.23,355.19,10.22,0000 0000 0000 0000 000000
2015-01-08 02:18:57,0.26,2.29,0.00,20.96,25.75,28.57,4.93,26.74,1031.47,2035.94,2618.61,2701.51,2925.72,350.38,355.61,10.25,0000 0000 0000 0000 000000
2015-01-08 02:23:58,0.26,2.30,0.00,20.98,25.75,28.58,4.93,26.82,1031.32,2035.97,2616.28,2699.78,2923.87,350.03,354.96,10.28,0000 0000 0000 0000 000000
2015-01-08 02:28:59,0.27,2.31,0.00,20.99,25.75,28.56,4.92,26.76,1031.30,2035.97,2613.72,2698.00,2921.94,350.07,355.24,10.31,0000 0000 0000 0000 000000
2015-01-08 02:34:01,0.25,2.31,0.00,21.02,25.75,28.57,4.85,26.61,1031.31,2035.97,2611.28,2696.24,2920.03,350.27,355.35,10.34,0000 0000 0000 0000 000000
2015-01-08 02:39:02,0.29,2.32,0.00,20.98,25.75,28.57,4.93,27.01,1031.29,2035.95,2608.61,2694.26,2917.92,350.16,355.29,10.36,0000 0000 0000 0000 000000
2015-01-08 02:44:03,0.28,2.33,0.00,20.96,25.75,28.57,4.89,26.88,1031.29,2035.95,2606.08,2692.39,2915.89,349.99,355.14,10.39,0000 0000 0000 0000 000000
2015-01-08 02:49:05,0.27,2.34,0.00,20.98,25.75,28.65,4.93,26.94,1031.28,2035.94,2603.59,2690.52,2913.88,350.12,355.22,10.42,0000 0000 0000 0000 000000
2015-01-08 02:54:06,0.26,2.35,0.00,20.95,25.75,28.63,4.91,26.87,1031.29,2035.90,2601.13,2688.68,2911.87,350.19,355.34,10.45,0000 0000 0000 0000 000000
2015-01-08 02:59:07,0.27,2.36,0.00,20.98,25.75,28.64,4.90,26.94,1031.29,2035.96,2598.67,2686.94,2909.89,350.16,355.30,10.48,0000 0000 0000 0000 000000
2015-01-08 03:04:09,0.26,2.36,0.00,20.95,25.75,28.64,4.93,26.81,1031.28,2035.96,2596.17,2685.16,2907.87,350.04,355.09,10.51,0000 0000 0000 0000 000000
2015-01-08 03:09:10,0.27,2.37,0.00,20.97,25.75,28.62,4.82,26.76,1031.28,2035.95,2593.71,2683.38,2905.91,349.55,354.44,10.54,0000 0000 0000 0000 000000
2015-01-08 03:14:11,0.27,2.38,0.00,20.95,25.75,28.69,4.97,26.77,1031.28,2035.98,2591.19,2681.52,2903.93,350.04,355.45,10.57,0000 0000 0000 0000 000000
2015-01-08 03:19:13,0.27,2.39,0.00,20.94,25.75,28.70,4.90,26.91,1031.29,2035.96,2588.70,2679.68,2901.88,349.91,355.17,10.60,0000 0000 0000 0000 000000
2015-01-08 03:24:14,0.28,2.40,0.00,20.92,25.75,28.70,4.87,26.82,1031.31,2035.96,2586.19,2677.80,2899.95,349.58,354.68,10.63,0000 0000 0000 0000 000000
2015-01-08 03:29:15,0.27,2.40,0.00,20.90,25.74,28.72,4.94,26.80,1031.53,2035.96,2583.72,2675.96,2897.94,349.66,354.85,10.66,0000 0000 0000 0000 000000
2015-01-08 03:34:17,0.25,2.41,0.00,20.92,25.73,28.71,4.90,26.88,1031.57,2035.95,2581.33,2674.24,2896.03,350.38,355.62,10.69,0000 0000 0000 0000 000000
2015-01-08 03:39:18,0.27,2.42,0.00,20.90,25.72,28.73,4.92,26.98,1031.35,2035.95,2578.81,2672.40,2894.06,350.03,355.40,10.72,0000 0000 0000 0000 000000
2015-01-08 03:44:19,0.27,2.43,0.00,20.89,25.72,28.72,4.92,26.93,1031.27,2035.97,2576.34,2670.57,2892.14,350.01,355.33,10.75,0000 0000 0000 0000 000000
2015-01-08 03:49:20,0.28,2.44,0.00,20.83,25.72,28.71,4.92,26.89,1031.27,2035.97,2573.91,2668.72,2890.16,349.79,354.97,10.78,0000 0000 0000 0000 000000
2015-01-08 03:54:22,0.27,2.44,0.00,20.89,25.71,28.74,4.84,26.77,1031.28,2035.97,2571.41,2666.93,2888.16,349.99,355.22,10.80,0000 0000 0000 0000 000000
2015-01-08 03:59:23,0.26,2.45,0.00,20.89,25.70,28.67,4.89,26.77,1031.28,2035.97,2569.02,2665.12,2886.23,350.00,355.25,10.83,0000 0000 0000 0000 000000
2015-01-08 04:04:25,0.24,2.46,0.00,20.92,25.70,28.75,4.91,26.78,1031.28,2035.98,2566.68,2663.48,2884.38,349.98,355.36,10.86,0000 0000 0000 0000 000000
2015-01-08 04:09:26,0.28,2.47,0.00,20.85,25.70,28.69,4.85,26.83,1031.28,2035.97,2564.28,2661.69,2882.44,349.90,355.12,10.89,0000 0000 0000 0000 000000
2015-01-08 04:14:27,0.29,2.47,0.00,20.88,25.70,28.73,4.86,26.93,1031.33,2035.99,2561.76,2659.77,2880.43,349.45,354.55,10.92,0000 0000 0000 0000 000000
2015-01-08 04:19:29,0.26,2.48,0.00,20.86,25.68,28.74,4.88,27.07,1031.57,2035.98,2559.33,2657.94,2878.64,349.90,355.47,10.95,0000 0000 0000 0000 000000
2015-01-08 04:24:30,0.26,2.49,0.00,20.83,25.67,28.72,4.91,27.09,1031.70,2035.99,2557.09,2656.19,2876.74,350.26,355.57,10.98,0000 0000 0000 0000 000000
2015-01-08 04:29:31,0.26,2.50,0.00,20.84,25.67,28.72,5.00,27.32,1031.54,2035.99,2554.65,2654.40,2874.79,350.07,355.53,11.01,0000 0000 0000 0000 000000
2015-01-08 04:34:32,0.26,2.51,0.00,20.82,25.67,28.68,4.87,26.98,1031.36,2035.99,2552.33,2652.70,2872.97,349.85,355.19,11.04,0000 0000 0000 0000 000000
2015-01-08 04:39:33,0.27,2.51,0.00,20.84,25.65,28.67,4.92,27.18,1031.34,2035.99,2549.97,2650.94,2871.08,350.08,355.22,11.07,0000 0000 0000 0000 000000
2015-01-08 04:44:35,0.21,2.52,0.00,20.83,25.65,28.63,4.93,26.89,1031.40,2035.99,2547.75,2649.36,2869.35,350.46,355.39,11.10,0000 0000 0000 0000 000000
2015-01-08 04:49:36,0.26,2.53,0.00,20.83,25.65,28.68,4.87,26.85,1031.36,2035.99,2545.52,2647.70,2867.53,349.69,355.09,11.13,0000 0000 0000 0000 000000
2015-01-08 04:54:37,0.24,2.54,0.00,20.82,25.65,28.66,4.90,26.83,1031.70,2035.99,2543.33,2646.00,2865.74,350.00,355.46,11.16,0000 0000 0000 0000 000000
2015-01-08 04:59:38,0.24,2.54,0.00,20.80,25.63,28.66,4.89,26.81,1031.64,2035.99,2541.11,2644.49,2864.04,349.86,355.27,11.19,0000 0000 0000 0000 000000
2015-01-08 05:04:40,0.24,2.55,0.00,20.80,25.62,28.69,4.90,27.01,1031.43,2035.99,2538.94,2642.83,2862.36,349.87,355.26,11.21,0000 0000 0000 0000 000000
2015-01-08 05:09:41,0.23,2.56,0.00,20.76,25.62,28.62,4.80,26.83,1031.30,2035.99,2536.83,2641.33,2860.67,349.60,355.05,11.24,0000 0000 0000 0000 000000
2015-01-08 05:14:42,0.23,2.56,0.00,20.76,25.62,28.58,4.85,26.82,1031.28,2035.99,2534.78,2639.81,2859.03,349.94,355.33,11.27,0000 0000 0000 0000 000000
2015-01-08 05:19:43,0.23,2.57,0.00,20.79,25.60,28.57,4.88,26.76,1031.29,2036.00,2532.61,2638.23,2857.30,349.61,355.03,11.30,0000 0000 0000 0000 000000
2015-01-08 05:24:45,0.24,2.58,0.00,20.78,25.60,28.58,4.89,26.70,1031.38,2036.00,2530.57,2636.69,2855.65,350.22,355.25,11.33,0000 0000 0000 0000 000000
2015-01-08 05:29:46,0.21,2.58,0.00,20.74,25.60,28.60,4.88,26.79,1031.32,2036.00,2528.56,2635.27,2854.04,349.88,355.41,11.36,0000 0000 0000 0000 000000
2015-01-08 05:34:47,0.25,2.59,0.00,20.80,25.60,28.56,4.93,27.10,1031.33,2036.01,2526.47,2633.67,2852.43,350.37,355.74,11.39,0000 0000 0000 0000 000000
2015-01-08 05:39:48,0.24,2.60,0.00,20.79,25.58,28.59,4.88,27.14,1031.33,2036.01,2524.28,2632.12,2850.70,349.58,354.94,11.42,0000 0000 0000 0000 000000
2015-01-08 05:44:49,0.21,2.61,0.00,20.72,25.57,28.56,4.91,27.00,1031.33,2036.01,2522.33,2630.69,2849.14,349.79,355.16,11.45,0000 0000 0000 0000 000000
2015-01-08 05:49:50,0.22,2.61,0.00,20.75,25.57,28.58,4.88,26.86,1031.44,2036.05,2520.45,2629.28,2847.58,349.76,355.36,11.48,0000 0000 0000 0000 000000
2015-01-08 05:54:52,0.24,2.62,0.00,20.73,25.57,28.53,4.84,26.87,1031.40,2036.03,2518.48,2627.71,2845.89,349.94,355.41,11.51,0000 0000 0000 0000 000000
2015-01-08 05:59:53,0.21,2.62,0.00,20.69,25.55,28.54,4.94,26.97,1031.31,2036.04,2516.48,2626.36,2844.38,350.16,355.55,11.54,0000 0000 0000 0000 000000
2015-01-08 06:04:54,0.24,2.63,0.00,20.68,25.55,28.56,4.88,26.87,1031.28,2036.07,2514.53,2624.85,2842.73,349.68,355.23,11.57,0000 0000 0000 0000 000000
2015-01-08 06:09:55,0.22,2.64,0.00,20.69,25.55,28.54,5.01,26.92,1031.27,2036.14,2512.61,2623.45,2841.24,350.49,355.84,11.59,0000 0000 0000 0000 000000
2015-01-08 06:14:57,0.21,2.64,0.00,20.69,25.53,28.56,4.88,26.85,1031.28,2036.21,2510.67,2622.19,2839.64,350.09,355.57,11.62,0000 0000 0000 0000 000000
2015-01-08 06:19:58,0.25,2.65,0.00,20.65,25.52,28.56,4.93,26.93,1031.27,2036.23,2508.68,2620.67,2838.00,349.94,355.62,11.65,0000 0000 0000 0000 000000
2015-01-08 06:24:59,0.26,2.66,0.00,20.65,25.52,28.54,4.85,26.84,1031.27,2036.42,2506.75,2619.22,2836.45,349.98,355.75,11.68,0000 0000 0000 0000 000000
2015-01-08 06:30:01,0.24,2.67,0.00,20.61,25.52,28.54,4.88,26.93,1031.27,2036.60,2504.76,2617.80,2834.86,349.86,355.34,11.71,0000 0000 0000 0000 000000
2015-01-08 06:35:02,0.24,2.68,0.00,20.65,25.50,28.54,4.93,26.92,1031.28,2036.77,2502.93,2616.47,2833.42,350.54,356.07,11.74,0000 0000 0000 0000 000000
2015-01-08 06:40:03,0.22,2.68,0.00,20.61,25.50,28.51,4.89,27.12,1031.28,2036.85,2501.09,2615.11,2831.87,349.90,355.39,11.77,0000 0000 0000 0000 000000
2015-01-08 06:45:04,0.20,2.69,0.00,20.65,25.49,28.51,4.94,26.85,1031.27,2036.82,2499.36,2613.78,2830.45,349.82,355.31,11.80,0000 0000 0000 0000 000000
2015-01-08 06:50:06,0.20,2.69,0.00,20.62,25.48,28.50,4.87,26.84,1031.28,2036.87,2497.65,2612.51,2828.98,349.96,355.25,11.83,0000 0000 0000 0000 000000
2015-01-08 06:55:07,0.19,2.70,0.00,20.65,25.47,28.50,4.89,26.99,1031.29,2036.85,2495.95,2611.18,2827.59,349.77,355.24,11.86,0000 0000 0000 0000 000000
2015-01-08 07:00:08,0.20,2.70,0.00,20.65,25.47,28.49,4.81,27.00,1031.30,2036.92,2494.43,2609.87,2826.14,349.97,355.60,11.89,0000 0000 0000 0000 000000
2015-01-08 07:05:09,0.21,2.71,0.00,20.62,25.47,28.48,4.95,27.11,1031.30,2036.92,2492.69,2608.60,2824.72,349.97,355.45,11.92,0000 0000 0000 0000 000000
2015-01-08 07:10:10,0.19,2.72,0.00,20.66,25.45,28.47,4.97,27.05,1031.28,2036.94,2490.89,2607.35,2823.37,349.78,355.13,11.95,0000 0000 0000 0000 000000
2015-01-08 07:15:11,0.20,2.72,0.00,20.64,25.45,28.48,4.86,26.98,1031.30,2036.96,2489.18,2605.98,2821.89,350.16,355.46,11.98,0000 0000 0000 0000 000000
2015-01-08 07:20:13,0.21,2.73,0.00,20.62,25.45,28.44,4.85,26.94,1031.32,2036.94,2487.40,2604.66,2820.50,349.25,354.89,12.00,0000 0000 0000 0000 000000
2015-01-08 07:25:14,0.20,2.74,0.00,20.63,25.44,28.48,4.84,26.92,1031.44,2036.94,2485.64,2603.39,2819.05,349.62,355.27,12.03,0000 0000 0000 0000 000000
2015-01-08 07:30:16,0.21,2.74,0.00,20.57,25.42,28.43,4.88,27.00,1031.61,2036.97,2483.87,2602.07,2817.66,349.57,355.33,12.06,0000 0000 0000 0000 000000
2015-01-08 07:35:17,0.18,2.75,0.00,20.60,25.42,28.40,4.84,27.00,1031.61,2036.94,2482.15,2600.76,2816.34,349.67,355.52,12.09,0000 0000 0000 0000 000000
2015-01-08 07:40:18,0.21,2.75,0.00,20.57,25.41,28.48,4.88,27.02,1031.35,2036.95,2480.32,2599.45,2814.91,349.70,355.36,12.12,0000 0000 0000 0000 000000
2015-01-08 07:45:19,0.19,2.76,0.00,20.59,25.40,28.45,4.89,26.85,1031.38,2036.97,2478.65,2598.19,2813.56,349.46,355.12,12.15,0000 0000 0000 0000 000000
2015-01-08 07:50:21,0.18,2.77,0.00,20.54,25.40,28.45,4.92,26.98,1031.54,2036.98,2477.02,2596.90,2812.16,350.14,355.68,12.18,0000 0000 0000 0000 000000
2015-01-08 07:55:22,0.20,2.77,0.00,20.57,25.40,28.42,4.96,26.98,1031.60,2036.98,2475.39,2595.67,2810.80,349.75,355.45,12.21,0000 0000 0000 0000 000000
2015-01-08 08:00:24,0.20,2.78,0.00,20.54,25.39,28.47,4.92,26.93,1031.70,2036.98,2473.58,2594.42,2809.45,350.26,356.09,12.24,0000 0000 0000 0000 000000
2015-01-08 08:05:25,0.21,2.78,0.00,20.52,25.37,28.41,4.93,26.98,1031.74,2036.98,2471.77,2593.01,2807.98,350.05,355.44,12.27,0000 0000 0000 0000 000000
2015-01-08 08:10:26,0.22,2.79,0.00,20.55,25.37,28.38,4.92,26.99,1031.66,2036.99,2469.97,2591.67,2806.50,349.72,355.57,12.30,0000 0000 0000 0000 000000
2015-01-08 08:15:27,0.18,2.80,0.00,20.53,25.37,28.32,4.87,26.85,1031.60,2036.98,2468.22,2590.31,2805.02,349.56,355.29,12.33,0000 0000 0000 0000 000000
2015-01-08 08:20:29,0.22,2.80,0.00,20.59,25.36,28.32,4.90,26.86,1031.60,2036.99,2466.46,2588.93,2803.58,349.88,355.73,12.36,0000 0000 0000 0000 000000
2015-01-08 08:25:30,0.21,2.81,0.00,20.54,25.35,28.34,4.98,27.00,1031.51,2036.99,2464.68,2587.64,2802.11,350.60,356.35,12.39,0000 0000 0000 0000 000000
2015-01-08 08:30:31,0.21,2.81,0.00,20.56,25.35,28.31,4.87,27.01,1031.39,2036.99,2462.79,2586.27,2800.63,349.72,355.37,12.42,0000 0000 0000 0000 000000
2015-01-08 08:35:32,0.22,2.82,0.00,20.56,25.35,28.34,4.91,27.07,1031.37,2036.99,2460.89,2584.83,2799.16,349.93,355.75,12.44,0000 0000 0000 0000 000000
2015-01-08 08:40:33,0.22,2.83,0.00,20.57,25.33,28.28,4.87,27.07,1031.61,2036.99,2458.97,2583.47,2797.60,350.20,355.89,12.47,0000 0000 0000 0000 000000
2015-01-08 08:45:34,0.17,2.83,0.00,20.52,25.32,28.23,4.93,27.00,1031.70,2037.00,2457.19,2582.11,2796.17,349.52,355.29,12.50,0000 0000 0000 0000 000000
2015-01-08 08:50:36,0.25,2.84,0.00,20.52,25.32,28.21,4.87,26.96,1031.71,2037.00,2455.39,2580.69,2794.66,350.00,355.98,12.53,0000 0000 0000 0000 000000
2015-01-08 08:55:37,0.20,2.85,0.00,20.53,25.32,28.21,4.91,26.94,1031.56,2037.00,2453.60,2579.38,2793.19,350.44,356.05,12.56,0000 0000 0000 0000 000000
2015-01-08 09:00:39,0.19,2.85,0.00,20.56,25.32,28.25,4.91,27.01,1031.31,2037.00,2451.87,2578.13,2791.79,349.85,355.50,12.59,0000 0000 0000 0000 000000
2015-01-08 09:05:40,0.21,2.86,0.00,20.55,25.32,28.22,4.93,27.16,1031.27,2037.00,2450.17,2576.83,2790.46,349.82,355.27,12.62,0000 0000 0000 0000 000000
2015-01-08 09:10:41,0.20,2.86,0.00,20.57,25.32,28.23,4.89,27.14,1031.27,2037.00,2448.42,2575.55,2789.05,349.62,355.39,12.65,0000 0000 0000 0000 000000
2015-01-08 09:15:42,0.21,2.87,0.00,20.55,25.30,28.25,4.92,27.01,1031.27,2037.00,2446.70,2574.25,2787.62,350.16,355.76,12.68,0000 0000 0000 0000 000000
2015-01-08 09:20:43,0.21,2.88,0.00,20.55,25.30,28.30,4.89,27.15,1031.27,2037.00,2444.96,2572.89,2786.10,350.13,355.75,12.71,0000 0000 0000 0000 000000
2015-01-08 09:25:45,0.23,2.88,0.00,20.51,25.30,28.31,4.95,27.30,1031.27,2037.00,2443.17,2571.50,2784.60,349.20,355.21,12.74,0000 0000 0000 0000 000000
2015-01-08 09:30:46,0.19,2.89,0.00,20.50,25.30,28.29,4.96,27.27,1031.27,2037.00,2441.32,2570.16,2783.23,349.96,355.65,12.77,0000 0000 0000 0000 000000
2015-01-08 09:35:48,0.21,2.90,0.00,20.51,25.29,28.26,4.88,27.27,1031.27,2037.00,2439.54,2568.86,2781.77,349.95,355.68,12.80,0000 0000 0000 0000 000000
2015-01-08 09:40:49,0.22,2.90,0.00,20.47,25.28,28.33,4.94,27.54,1031.16,2037.01,2437.71,2567.55,2780.36,349.67,355.32,12.82,0000 0000 0000 0000 000000
2015-01-08 09:45:51,0.18,2.91,0.00,20.45,25.27,28.33,4.90,27.16,1031.11,2037.01,2436.13,2566.34,2778.96,349.83,355.54,12.85,0000 0000 0000 0000 000000
2015-01-08 09:50:51,0.21,2.91,0.00,20.39,25.27,28.37,4.99,27.20,1031.24,2037.02,2434.43,2565.01,2777.58,349.87,355.78,12.88,0000 0000 0000 0000 000000
2015-01-08 09:55:53,0.19,2.92,0.00,20.40,25.26,28.38,4.92,26.99,1031.24,2037.03,2432.80,2563.78,2776.25,350.46,356.08,12.91,0000 0000 0000 0000 000000
2015-01-08 10:00:53,0.20,2.93,0.00,20.42,25.25,28.33,4.90,26.96,1031.27,2037.05,2431.26,2562.54,2774.81,349.70,355.66,12.94,0000 0000 0000 0000 000000
2015-01-08 10:05:55,0.18,2.93,0.00,20.37,25.25,28.31,4.92,26.81,1031.27,2037.05,2429.66,2561.35,2773.51,349.52,355.27,12.97,0000 0000 0000 0000 000000
2015-01-08 10:10:56,0.19,2.94,0.00,20.34,25.24,28.36,4.91,26.82,1031.27,2037.09,2427.99,2560.14,2772.25,350.13,356.10,13.00,0000 0000 0000 0000 000000
2015-01-08 10:15:57,0.19,2.94,0.00,20.35,25.22,28.37,4.93,27.17,1031.27,2037.08,2426.37,2559.03,2770.90,349.83,355.74,13.03,0000 0000 0000 0000 000000
2015-01-08 10:20:58,0.21,2.95,0.00,20.40,25.22,28.35,4.88,27.04,1031.27,2037.12,2424.74,2557.91,2769.53,349.95,355.60,13.06,0000 0000 0000 0000 000000
2015-01-08 10:25:59,0.22,2.95,0.00,20.37,25.20,28.30,4.94,27.26,1031.27,2037.18,2423.08,2556.64,2768.22,349.91,355.65,13.09,0000 0000 0000 0000 000000
2015-01-08 10:31:01,0.22,2.96,0.00,20.34,25.20,28.24,4.88,27.10,1031.27,2037.34,2421.51,2555.46,2766.77,349.88,355.86,13.12,0000 0000 0000 0000 000000
2015-01-08 10:36:02,0.21,2.97,0.00,20.33,25.20,28.26,4.93,26.99,1031.27,2037.38,2419.78,2554.06,2765.39,349.96,355.90,13.15,0000 0000 0000 0000 000000
2015-01-08 10:41:04,0.22,2.98,0.00,20.36,25.17,28.26,4.91,27.19,1031.27,2037.42,2417.92,2552.71,2763.84,349.91,355.64,13.18,0000 0000 0000 0000 000000
2015-01-08 10:46:05,0.22,2.98,0.00,20.33,25.17,28.24,4.98,27.06,1031.24,2037.40,2416.32,2551.46,2762.44,350.17,355.76,13.21,0000 0000 0000 0000 000000
2015-01-08 10:51:06,0.21,2.99,0.00,20.34,25.17,28.19,4.90,27.10,1031.24,2037.63,2414.63,2550.21,2761.13,349.75,355.47,13.23,0000 0000 0000 0000 000000
2015-01-08 10:56:08,0.26,3.00,0.00,20.34,25.15,28.15,4.89,26.98,1031.26,2037.78,2412.80,2548.80,2759.66,350.22,356.01,13.26,0000 0000 0000 0000 000000
2015-01-08 11:01:09,0.23,3.00,0.00,20.32,25.15,28.08,4.88,27.00,1031.22,2037.87,2410.93,2547.50,2758.17,350.04,355.78,13.29,0000 0000 0000 0000 000000
2015-01-08 11:06:10,0.23,3.01,0.00,20.37,25.15,28.09,4.92,27.20,1031.24,2037.96,2409.13,2546.12,2756.73,349.98,355.67,13.32,0000 0000 0000 0000 000000
2015-01-08 11:11:11,0.21,3.02,0.00,20.34,25.14,28.12,4.89,27.27,1031.26,2037.95,2407.36,2544.72,2755.29,349.63,355.53,13.35,0000 0000 0000 0000 000000
2015-01-08 11:16:13,0.22,3.02,0.00,20.38,25.13,28.07,5.04,27.19,1031.26,2037.96,2405.49,2543.45,2753.78,349.95,355.80,13.38,0000 0000 0000 0000 000000
2015-01-08 11:21:14,0.23,3.03,0.00,20.36,25.12,28.08,4.97,27.20,1031.05,2037.98,2403.66,2541.96,2752.38,350.02,355.67,13.41,0000 0000 0000 0000 000000
2015-01-08 11:26:15,0.20,3.04,0.00,20.38,25.12,28.11,4.91,27.09,1030.98,2037.98,2401.94,2540.63,2750.95,350.38,355.85,13.44,0000 0000 0000 0000 000000
2015-01-08 11:31:17,0.21,3.04,0.00,20.38,25.12,28.07,4.95,26.95,1030.84,2037.99,2400.20,2539.32,2749.53,350.29,356.00,13.47,0000 0000 0000 0000 000000
2015-01-08 11:36:18,0.21,3.05,0.00,20.37,25.12,28.02,4.87,27.04,1030.81,2037.98,2398.37,2537.92,2748.02,349.56,355.13,13.50,0000 0000 0000 0000 000000
2015-01-08 11:41:19,0.24,3.06,0.00,20.35,25.10,28.03,4.95,27.18,1030.82,2037.99,2396.49,2536.52,2746.57,350.27,355.99,13.53,0000 0000 0000 0000 000000
2015-01-08 11:46:21,0.20,3.06,0.00,20.35,25.10,28.06,4.90,27.05,1030.80,2037.99,2394.70,2535.21,2745.14,349.92,355.64,13.56,0000 0000 0000 0000 000000
2015-01-08 11:51:22,0.24,3.07,0.00,20.35,25.10,27.98,4.83,26.93,1030.79,2037.98,2392.87,2533.79,2743.68,350.02,355.75,13.59,0000 0000 0000 0000 000000
2015-01-08 11:56:23,0.18,3.07,0.00,20.43,25.10,27.96,4.89,26.97,1030.78,2037.98,2391.29,2532.56,2742.31,349.80,355.43,13.62,0000 0000 0000 0000 000000
2015-01-08 12:01:24,0.21,3.08,0.00,20.42,25.10,27.91,4.92,27.14,1030.78,2037.99,2389.54,2531.29,2740.89,350.22,355.45,13.64,0000 0000 0000 0000 000000
2015-01-08 12:06:25,0.22,3.09,0.00,20.40,25.10,27.96,4.84,26.99,1030.78,2037.98,2387.78,2529.90,2739.51,349.94,355.37,13.67,0000 0000 0000 0000 000000
2015-01-08 12:11:26,0.22,3.09,0.00,20.43,25.10,27.99,4.96,27.17,1030.78,2037.99,2386.04,2528.58,2738.02,350.63,356.36,13.70,0000 0000 0000 0000 000000
2015-01-08 12:16:28,0.19,3.10,0.00,20.37,25.10,27.97,4.90,26.99,1030.78,2037.99,2384.42,2527.46,2736.63,350.25,355.67,13.73,0000 0000 0000 0000 000000
2015-01-08 12:21:29,0.21,3.11,0.00,20.40,25.10,27.96,4.85,27.02,1030.78,2037.99,2382.68,2526.03,2735.29,349.63,355.18,13.76,0000 0000 0000 0000 000000
2015-01-08 12:26:30,0.24,3.11,0.00,20.41,25.10,27.94,4.88,27.08,1030.78,2037.99,2380.94,2524.62,2733.73,350.22,355.71,13.79,0000 0000 0000 0000 000000
2015-01-08 12:31:32,0.20,3.12,0.00,20.42,25.10,27.98,4.94,27.15,1030.77,2037.98,2379.09,2523.23,2732.17,350.45,356.02,13.82,0000 0000 0000 0000 000000
2015-01-08 12:36:33,0.27,3.13,0.00,20.39,25.10,27.93,4.92,27.11,1030.77,2037.98,2377.15,2521.74,2730.57,349.91,355.42,13.85,0000 0000 0000 0000 000000
2015-01-08 12:41:34,0.24,3.13,0.00,20.37,25.10,27.91,4.91,27.32,1030.78,2037.99,2375.13,2520.19,2728.86,349.46,355.24,13.88,0000 0000 0000 0000 000000
2015-01-08 12:46:35,0.25,3.14,0.00,20.41,25.10,27.96,4.83,27.05,1030.78,2037.99,2373.17,2518.64,2727.31,350.05,355.81,13.91,0000 0000 0000 0000 000000
2015-01-08 12:51:36,0.26,3.15,0.00,20.35,25.10,28.00,4.87,27.00,1030.54,2037.99,2371.08,2517.06,2725.60,349.65,355.30,13.94,0000 0000 0000 0000 000000
2015-01-08 12:56:38,0.25,3.16,0.00,20.35,25.09,28.05,4.87,27.13,1030.38,2037.99,2369.12,2515.54,2723.93,349.97,355.68,13.97,0000 0000 0000 0000 000000
2015-01-08 13:01:39,0.24,3.16,0.00,20.36,25.09,28.04,4.88,27.09,1030.34,2037.99,2367.09,2513.93,2722.23,349.85,355.41,14.00,0000 0000 0000 0000 000000